Time,TemperatureF,DewpointF,PressureIn,WindDirection,WindDirectionDegrees,WindSpeedMPH,WindSpeedGustMPH,Humidity,HourlyPrecipIn,Conditions,Clouds,dailyrainin,SoftwareType,DateUTC
2013-02-11 00:09:00,24.7,12.0,30.31,SE,130,2.0,-999.0,59,-99.99,,,0.00,weatherlink.com 1.10,2013-02-11 05:09:00,
2013-02-11 00:24:00,25.0,11.0,30.29,NE,56,0.0,-999.0,55,-99.99,,,0.00,weatherlink.com 1.10,2013-02-11 05:24:00,
2013-02-11 00:38:00,24.4,10.0,30.29,ESE,104,3.0,-999.0,55,-99.99,,,0.00,weatherlink.com 1.10,2013-02-11 05:38:00,
2013-02-11 00:53:00,24.0,10.0,30.28,East,88,2.0,-999.0,56,-99.99,,,0.00,weatherlink.com 1.10,2013-02-11 05:53:00,
2013-02-11 01:08:00,23.3,10.0,30.28,ESE,111,4.0,-999.0,58,-99.99,,,0.00,weatherlink.com 1.10,2013-02-11 06:08:00,
2013-02-11 01:24:00,24.3,12.0,30.27,SE,145,1.0,-999.0,60,-99.99,,,0.00,weatherlink.com 1.10,2013-02-11 06:24:00,
2013-02-11 01:38:00,25.3,15.0,30.27,West,259,0.0,-999.0,64,-99.99,,,0.00,weatherlink.com 1.10,2013-02-11 06:38:00,
2013-02-11 01:55:00,26.1,17.0,30.25,WSW,240,0.0,-999.0,68,-99.99,,,0.00,weatherlink.com 1.10,2013-02-11 06:55:00,
2013-02-11 02:09:00,26.7,18.0,30.26,SSW,212,0.0,-999.0,69,-99.99,,,0.00,weatherlink.com 1.10,2013-02-11 07:09:00,
2013-02-11 02:24:00,26.7,18.0,30.25,SE,139,2.0,-999.0,71,-99.99,,,0.00,weatherlink.com 1.10,2013-02-11 07:24:00,
2013-02-11 02:39:00,26.8,19.0,30.24,SSE,164,2.0,-999.0,72,-99.99,,,0.00,weatherlink.com 1.10,2013-02-11 07:39:00,
2013-02-11 02:54:00,27.0,21.0,30.23,SE,134,4.0,-999.0,77,-99.99,,,0.00,weatherlink.com 1.10,2013-02-11 07:54:00,
2013-02-11 03:09:00,27.0,21.0,30.21,SSE,150,2.0,-999.0,79,-99.99,,,0.00,weatherlink.com 1.10,2013-02-11 08:09:00,
2013-02-11 03:24:00,26.9,21.0,30.21,SE,143,3.0,-999.0,79,-99.99,,,0.00,weatherlink.com 1.10,2013-02-11 08:24:00,
2013-02-11 03:39:00,26.8,21.0,30.19,SSE,152,0.0,-999.0,77,-99.99,,,0.00,weatherlink.com 1.10,2013-02-11 08:39:00,
2013-02-11 03:54:00,26.9,21.0,30.20,SE,132,2.0,-999.0,79,-99.99,,,0.00,weatherlink.com 1.10,2013-02-11 08:54:00,
2013-02-11 04:09:00,27.4,22.0,30.20,SE,134,2.0,-999.0,79,-99.99,,,0.00,weatherlink.com 1.10,2013-02-11 09:09:00,
2013-02-11 04:24:00,28.0,23.0,30.19,West,261,1.0,-999.0,80,-99.99,,,0.00,weatherlink.com 1.10,2013-02-11 09:24:00,
2013-02-11 04:39:00,28.7,23.0,30.18,ESE,122,5.0,-999.0,79,-99.99,,,0.00,weatherlink.com 1.10,2013-02-11 09:39:00,
2013-02-11 04:54:00,29.3,24.0,30.17,SSE,157,4.0,-999.0,80,-99.99,,,0.00,weatherlink.com 1.10,2013-02-11 09:54:00,
2013-02-11 05:09:00,29.7,25.0,30.17,SE,127,4.0,-999.0,82,-99.99,,,0.00,weatherlink.com 1.10,2013-02-11 10:09:00,
2013-02-11 05:24:00,29.2,25.0,30.16,ESE,111,4.0,-999.0,84,-99.99,,,0.00,weatherlink.com 1.10,2013-02-11 10:24:00,
2013-02-11 05:39:00,28.2,25.0,30.15,SSE,152,2.0,-999.0,87,-99.99,,,0.00,weatherlink.com 1.10,2013-02-11 10:39:00,
2013-02-11 05:55:00,28.0,25.0,30.15,South,189,0.0,-999.0,89,-99.99,,,0.00,weatherlink.com 1.10,2013-02-11 10:55:00,
2013-02-11 06:09:00,28.3,26.0,30.14,South,182,0.0,-999.0,91,-99.99,,,0.00,weatherlink.com 1.10,2013-02-11 11:09:00,
2013-02-11 06:24:00,28.5,26.0,30.12,SE,144,0.0,-999.0,91,-99.99,,,0.00,weatherlink.com 1.10,2013-02-11 11:24:00,
2013-02-11 06:40:00,28.6,26.0,30.10,ESE,119,3.0,-999.0,91,-99.99,,,0.00,weatherlink.com 1.10,2013-02-11 11:40:00,
2013-02-11 06:54:00,28.7,27.0,30.09,SE,145,2.0,-999.0,92,-99.99,,,0.00,weatherlink.com 1.10,2013-02-11 11:54:00,
2013-02-11 07:09:00,29.6,28.0,30.08,SE,130,10.0,-999.0,92,-99.99,,,0.00,weatherlink.com 1.10,2013-02-11 12:09:00,
2013-02-11 07:24:00,31.0,29.0,30.08,ESE,123,4.0,-999.0,93,-99.99,,,0.00,weatherlink.com 1.10,2013-02-11 12:24:00,
2013-02-11 07:39:00,31.4,29.0,30.06,South,171,6.0,-999.0,92,-99.99,,,0.00,weatherlink.com 1.10,2013-02-11 12:39:00,
2013-02-11 07:55:00,31.6,30.0,30.06,East,101,2.0,-999.0,92,-99.99,,,0.00,weatherlink.com 1.10,2013-02-11 12:55:00,
2013-02-11 08:10:00,32.0,30.0,30.05,SE,129,2.0,-999.0,93,-99.99,,,0.00,weatherlink.com 1.10,2013-02-11 13:10:00,
2013-02-11 08:25:00,32.2,30.0,30.04,South,190,3.0,-999.0,93,-99.99,,,0.00,weatherlink.com 1.10,2013-02-11 13:25:00,
2013-02-11 08:40:00,32.4,31.0,30.03,SE,135,4.0,-999.0,93,-99.99,,,0.00,weatherlink.com 1.10,2013-02-11 13:40:00,
2013-02-11 08:55:00,32.6,31.0,30.02,SE,146,4.0,-999.0,93,-99.99,,,0.00,weatherlink.com 1.10,2013-02-11 13:55:00,
2013-02-11 09:10:00,32.7,31.0,30.01,SE,146,1.0,-999.0,93,-99.99,,,0.00,weatherlink.com 1.10,2013-02-11 14:10:00,
2013-02-11 09:25:00,33.0,31.0,30.01,SE,134,2.0,-999.0,93,-99.99,,,0.00,weatherlink.com 1.10,2013-02-11 14:25:00,
2013-02-11 09:40:00,33.1,31.0,29.99,SSE,149,1.0,-999.0,93,-99.99,,,0.00,weatherlink.com 1.10,2013-02-11 14:40:00,
2013-02-11 09:55:00,33.4,32.0,29.97,South,184,1.0,-999.0,93,-99.99,,,0.00,weatherlink.com 1.10,2013-02-11 14:55:00,
2013-02-11 10:10:00,33.7,32.0,29.96,South,178,0.0,-999.0,93,-99.99,,,0.01,weatherlink.com 1.10,2013-02-11 15:10:00,
2013-02-11 10:25:00,34.1,32.0,29.96,SE,128,2.0,-999.0,93,-99.99,,,0.03,weatherlink.com 1.10,2013-02-11 15:25:00,
2013-02-11 10:40:00,34.6,33.0,29.94,ESE,119,1.0,-999.0,93,-99.99,,,0.07,weatherlink.com 1.10,2013-02-11 15:40:00,
2013-02-11 10:56:00,35.1,33.0,29.93,SE,125,1.0,-999.0,93,-99.99,,,0.09,weatherlink.com 1.10,2013-02-11 15:56:00,
2013-02-11 11:10:00,35.7,34.0,29.93,West,264,0.0,-999.0,94,-99.99,,,0.11,weatherlink.com 1.10,2013-02-11 16:10:00,
2013-02-11 11:25:00,36.4,35.0,29.91,South,169,0.0,-999.0,94,-99.99,,,0.12,weatherlink.com 1.10,2013-02-11 16:25:00,
2013-02-11 11:40:00,37.4,36.0,29.89,SE,137,0.0,-999.0,94,-99.99,,,0.13,weatherlink.com 1.10,2013-02-11 16:40:00,
2013-02-11 11:56:00,38.2,37.0,29.86,SE,134,0.0,-999.0,94,-99.99,,,0.15,weatherlink.com 1.10,2013-02-11 16:56:00,
2013-02-11 12:11:00,39.5,38.0,29.85,ESE,120,0.0,-999.0,94,-99.99,,,0.16,weatherlink.com 1.10,2013-02-11 17:11:00,
2013-02-11 12:26:00,39.8,38.0,29.84,SW,214,0.0,-999.0,94,-99.99,,,0.17,weatherlink.com 1.10,2013-02-11 17:26:00,
2013-02-11 12:41:00,39.7,38.0,29.82,SSW,194,4.0,-999.0,94,-99.99,,,0.17,weatherlink.com 1.10,2013-02-11 17:41:00,
2013-02-11 12:56:00,40.1,39.0,29.82,WSW,240,3.0,-999.0,94,-99.99,,,0.17,weatherlink.com 1.10,2013-02-11 17:56:00,
2013-02-11 13:11:00,40.4,39.0,29.80,South,184,1.0,-999.0,94,-99.99,,,0.18,weatherlink.com 1.10,2013-02-11 18:11:00,
2013-02-11 13:26:00,40.4,39.0,29.80,South,186,4.0,-999.0,94,-99.99,,,0.18,weatherlink.com 1.10,2013-02-11 18:26:00,
2013-02-11 13:41:00,40.3,39.0,29.78,SW,225,4.0,-999.0,94,-99.99,,,0.18,weatherlink.com 1.10,2013-02-11 18:41:00,
2013-02-11 13:56:00,40.5,39.0,29.77,SW,216,3.0,-999.0,94,-99.99,,,0.18,weatherlink.com 1.10,2013-02-11 18:56:00,
2013-02-11 14:11:00,40.4,39.0,29.77,SSW,204,5.0,-999.0,93,-99.99,,,0.18,weatherlink.com 1.10,2013-02-11 19:11:00,
2013-02-11 14:26:00,40.2,38.0,29.77,SSW,201,3.0,-999.0,93,-99.99,,,0.18,weatherlink.com 1.10,2013-02-11 19:26:00,
2013-02-11 14:41:00,39.9,38.0,29.76,SW,222,0.0,-999.0,93,-99.99,,,0.18,weatherlink.com 1.10,2013-02-11 19:41:00,
2013-02-11 14:56:00,39.7,38.0,29.75,SW,219,0.0,-999.0,93,-99.99,,,0.18,weatherlink.com 1.10,2013-02-11 19:56:00,
2013-02-11 15:11:00,39.6,38.0,29.74,SSW,202,0.0,-999.0,93,-99.99,,,0.18,weatherlink.com 1.10,2013-02-11 20:11:00,
2013-02-11 15:26:00,39.6,38.0,29.72,SSW,202,0.0,-999.0,94,-99.99,,,0.18,weatherlink.com 1.10,2013-02-11 20:26:00,
2013-02-11 15:41:00,39.7,38.0,29.72,South,184,0.0,-999.0,94,-99.99,,,0.18,weatherlink.com 1.10,2013-02-11 20:41:00,
2013-02-11 15:56:00,40.0,39.0,29.71,SW,217,2.0,-999.0,94,-99.99,,,0.18,weatherlink.com 1.10,2013-02-11 20:56:00,
2013-02-11 16:11:00,39.9,38.0,29.71,South,177,0.0,-999.0,94,-99.99,,,0.18,weatherlink.com 1.10,2013-02-11 21:11:00,
2013-02-11 16:26:00,39.8,38.0,29.71,ESE,123,0.0,-999.0,94,-99.99,,,0.18,weatherlink.com 1.10,2013-02-11 21:26:00,
2013-02-11 16:41:00,39.7,38.0,29.70,SSE,165,0.0,-999.0,94,-99.99,,,0.18,weatherlink.com 1.10,2013-02-11 21:41:00,
2013-02-11 16:56:00,39.3,38.0,29.70,WSW,246,1.0,-999.0,94,-99.99,,,0.18,weatherlink.com 1.10,2013-02-11 21:56:00,
2013-02-11 17:11:00,39.1,38.0,29.69,SSE,167,1.0,-999.0,94,-99.99,,,0.18,weatherlink.com 1.10,2013-02-11 22:11:00,
2013-02-11 17:26:00,38.8,37.0,29.69,SSE,168,0.0,-999.0,94,-99.99,,,0.18,weatherlink.com 1.10,2013-02-11 22:26:00,
2013-02-11 17:41:00,38.2,37.0,29.69,SSE,168,0.0,-999.0,94,-99.99,,,0.18,weatherlink.com 1.10,2013-02-11 22:41:00,
2013-02-11 17:56:00,37.3,36.0,29.68,SSE,168,0.0,-999.0,94,-99.99,,,0.18,weatherlink.com 1.10,2013-02-11 22:56:00,
2013-02-11 18:11:00,36.6,35.0,29.67,SSE,168,0.0,-999.0,94,-99.99,,,0.18,weatherlink.com 1.10,2013-02-11 23:11:00,
2013-02-11 18:26:00,36.9,35.0,29.68,SSW,196,0.0,-999.0,94,-99.99,,,0.18,weatherlink.com 1.10,2013-02-11 23:26:00,
2013-02-11 18:41:00,37.9,37.0,29.66,South,173,1.0,-999.0,95,-99.99,,,0.18,weatherlink.com 1.10,2013-02-11 23:41:00,
2013-02-11 18:56:00,38.0,37.0,29.66,South,175,0.0,-999.0,94,-99.99,,,0.18,weatherlink.com 1.10,2013-02-11 23:56:00,
2013-02-11 19:11:00,37.9,36.0,29.66,SW,227,1.0,-999.0,94,-99.99,,,0.18,weatherlink.com 1.10,2013-02-12 00:11:00,
2013-02-11 19:26:00,37.9,37.0,29.66,NW,305,0.0,-999.0,95,-99.99,,,0.18,weatherlink.com 1.10,2013-02-12 00:26:00,
2013-02-11 19:41:00,37.9,37.0,29.65,West,274,0.0,-999.0,95,-99.99,,,0.18,weatherlink.com 1.10,2013-02-12 00:41:00,
2013-02-11 19:56:00,37.9,37.0,29.65,West,271,2.0,-999.0,95,-99.99,,,0.19,weatherlink.com 1.10,2013-02-12 00:56:00,
2013-02-11 20:11:00,37.9,37.0,29.65,West,277,1.0,-999.0,95,-99.99,,,0.19,weatherlink.com 1.10,2013-02-12 01:11:00,
2013-02-11 20:26:00,38.0,37.0,29.65,West,269,5.0,-999.0,95,-99.99,,,0.19,weatherlink.com 1.10,2013-02-12 01:26:00,
2013-02-11 20:41:00,38.0,37.0,29.65,North,349,2.0,-999.0,95,-99.99,,,0.19,weatherlink.com 1.10,2013-02-12 01:41:00,
2013-02-11 20:56:00,38.0,37.0,29.65,NW,313,0.0,-999.0,95,-99.99,,,0.19,weatherlink.com 1.10,2013-02-12 01:56:00,
2013-02-11 21:11:00,38.1,37.0,29.65,NNW,338,0.0,-999.0,95,-99.99,,,0.19,weatherlink.com 1.10,2013-02-12 02:11:00,
2013-02-11 21:26:00,37.9,37.0,29.66,NNW,338,0.0,-999.0,95,-99.99,,,0.19,weatherlink.com 1.10,2013-02-12 02:26:00,
2013-02-11 21:42:00,37.9,37.0,29.65,WNW,295,0.0,-999.0,95,-99.99,,,0.19,weatherlink.com 1.10,2013-02-12 02:42:00,
2013-02-11 21:56:00,38.0,37.0,29.65,WNW,299,0.0,-999.0,95,-99.99,,,0.19,weatherlink.com 1.10,2013-02-12 02:56:00,
2013-02-11 22:12:00,37.8,37.0,29.66,WNW,299,0.0,-999.0,95,-99.99,,,0.19,weatherlink.com 1.10,2013-02-12 03:12:00,
2013-02-11 22:26:00,37.2,36.0,29.67,NW,317,7.0,-999.0,95,-99.99,,,0.19,weatherlink.com 1.10,2013-02-12 03:26:00,
2013-02-11 22:41:00,36.1,35.0,29.66,North,355,0.0,-999.0,95,-99.99,,,0.20,weatherlink.com 1.10,2013-02-12 03:41:00,
2013-02-11 22:56:00,35.4,34.0,29.67,WNW,285,2.0,-999.0,95,-99.99,,,0.20,weatherlink.com 1.10,2013-02-12 03:56:00,
2013-02-11 23:11:00,35.1,34.0,29.67,WNW,285,0.0,-999.0,95,-99.99,,,0.20,weatherlink.com 1.10,2013-02-12 04:11:00,
2013-02-11 23:26:00,34.8,34.0,29.67,WNW,285,0.0,-999.0,95,-99.99,,,0.20,weatherlink.com 1.10,2013-02-12 04:26:00,
2013-02-11 23:41:00,34.3,33.0,29.66,WNW,285,0.0,-999.0,95,-99.99,,,0.20,weatherlink.com 1.10,2013-02-12 04:41:00,
2013-02-11 23:57:00,33.5,32.0,29.65,WNW,285,0.0,-999.0,94,-99.99,,,0.20,weatherlink.com 1.10,2013-02-12 04:57:00,